Showing default

CORVUS BC1, 42847

Orbit data source: Space-Track

CORVUS BC1, 42847 is a payload satellite owned by Astro Digital (US) in SSO that was launched on Fri, 14 Jul 2017 UTC via a SOYUZ-2-1A launch vehicle from the Tyuratam Missile And Space Complex (TTMTR). Payload-class satellites include a variety of spacecraft equipped with specific instruments for various scientific and technological missions. These include communications satellites like Starlink; space stations such as the ISS; scientific satellites like the Hubble; Earth observation satellites from companies like Planet Labs, Umbra, and HawkEye 360; GPS; miniature CubeSats for education and research; and military/defense satellites.

Loading next visibility...
Identifier
42847, 2017-042Y
Orbit
SSO
Country
Flag of USUS
Related business
Manufacturer
Astro Digital
Mission
Operational Commercial Imaging
Bus & Motor
CUBESAT 6U, Unknown motor
Mass
10 kg wet, 10 kg dry
Launch date (UTC)
2017-07-14 (9 years ago)
Launch vehicle
SOYUZ-2-1A
Launch site
Tyuratam Missile And Space Complex (TTMTR)
Object type
Payload
Rocket body
Debris
Shape & HBR
Box + 2 Pan, 0.2 m
Radar Cross Section
0.092 m², Medium (>0.1 m² and < 1m²)

Expand to show TLE details & history
Last TLE update: 12 hours ago

TLE from 12 hours ago
0 CORVUS BC1
1 42847U 17042Y   26236.92835645  .00003367  00000-0  22976-3 0  9998
2 42847  97.4171  36.5136 0011127 206.5739 153.4920 15.06811837497446
Epoch: 2026-08-24T22:16Z
TLE epoch observation values (Epoch: 2026-08-24T22:16:49.997Z)
Latitude
Longitude
89.10226°
Altitude
555.919 km
Speed
7.58 km/s
True Right ascension
02h 26m 03s
True Declination
0° 00' 00"
Sunlit
Object was in full shadow at epoch
Visualization orbit readout
Latitude
Unknown
Longitude
Unknown
Altitude
Unknown
Speed
Unknown
Apparent Right ascension
Unknown
Apparent Declination
Unknown
Sunlit
N/A
Visualization observer readout
Local Sidereal Time
01:50:28
Azimuth
Unknown
Elevation
Unknown
Doppler factor
Unknown
Orbital elements
Apogee altitude
550.635 km
Perigee altitude
535.232 km
Semi-major axis
6,921.071 km
Eccentricity
0.00111
Inclination
97.4171°
RAAN
36.5136°
Arg. of periapsis
206.5739°
True anomaly
153.54884°
Mean anomaly
153.492°
Eccentric anomaly
153.52043°
Mean motion
3.7695 °/min
Orbital period
95.5 mins
BSTAR
0.00022976
Loading maneuver chart data...
Computing Atmospheric mass density...
Loading historical data...
Loading historical data...
Loading historical data...
Loading historical data...
Loading historical data...
Loading historical data...
Loading historical data...

Documentation

Showing up to 5 results
|